Home > Time Zones > World Clock > Weather > Norway > Moss > Past weeks

Flag Weather past 2 weeks in Moss, Norway

Now
36 °F

Overcast.


Feels Like: 30 °F
Forecast: 34 / 37 °F
Wind: 7 mph from North

Location: Rygge

Current Time: Nov 21, 2014 at 12:52:44 AM

Latest Report: Nov 20, 2014 at 11:50 PM


Visibility: 3 mi

Pressure: 30.45 "Hg

Humidity: 93%

Dew point: 34 °F

Location of MossLocation

Historic Weather in Moss — Graph

°F

Moss temperature yesterday

Maximum temperature yesterday: 36 °F (at 12:20 AM)
Minimum temperature yesterday: 34 °F (at 6:50 AM)
Average temperature yesterday: 34 °F

Past Weeks' High & Low Weather Summary

 TemperatureHumidityPressure
High52 °F (Nov 9, 12:20 PM)100% (Nov 7, 12:20 PM)30.51 "Hg (Nov 7, 12:20 PM)
Low30 °F (Nov 6, 5:20 AM)60% (Nov 6, 2:20 PM)29.68 "Hg (Nov 8, 5:20 AM)
Average41 °F92%30.06 "Hg
* Reported Nov 5 11:20 PM — Nov 20 11:50 PM, Moss, Weather by CustomWeather, © 2014

Note: Actual official high and low records may vary slightly from our data, if they occured in-between our weather recording intervals... More about our weather records

Advertising

Moss weather history for previous 24 hours

 ConditionsComfort  
Time TempWeatherWind HumidityBarometerVisibility
11:50 PM
Nov 20
36 °FOvercast.7 mph93%30.45 "Hg3 mi
11:20 PM36 °FDrizzle. Overcast.8 mph93%30.45 "Hg3 mi
10:50 PM36 °FPassing clouds.6 mph93%30.45 "Hg4 mi
10:20 PM36 °FPassing clouds.6 mph93%30.45 "Hg4 mi
9:50 PM36 °FPassing clouds.7 mph93%30.45 "Hg4 mi
9:20 PM34 °FMostly cloudy.7 mph100%30.45 "Hg4 mi
8:50 PM34 °FMostly cloudy.7 mph100%30.45 "Hg4 mi
8:20 PM34 °FOvercast.6 mph100%30.45 "Hg4 mi
7:50 PM34 °FOvercast.7 mph100%30.45 "Hg3 mi
7:20 PM34 °FOvercast.6 mph100%30.45 "Hg3 mi
6:50 PM34 °FFog.5 mph100%30.45 "Hg3 mi
5:50 PM34 °FFog.6 mph100%30.45 "Hg3 mi
5:20 PM34 °FFog.7 mph100%30.45 "Hg3 mi
4:50 PM34 °FPassing clouds.6 mph100%30.48 "Hg3 mi
4:20 PM34 °FPassing clouds.6 mph100%30.48 "Hg3 mi
3:50 PM34 °FPassing clouds.7 mph100%30.48 "Hg3 mi
3:20 PM34 °FLight rain. Fog.6 mph100%30.48 "Hg3 mi
2:50 PM34 °FLight rain. Fog.6 mph100%30.48 "Hg3 mi
2:20 PM34 °FLight rain. Fog.7 mph100%30.48 "Hg4 mi
1:50 PM34 °FLight rain. Broken clouds.6 mph100%30.48 "Hg3 mi
1:20 PM34 °FLight snow. Fog.6 mph100%30.48 "Hg2 mi
12:50 PM34 °FLight rain. Fog.6 mph100%30.51 "Hg3 mi
12:20 PM34 °FLight rain. Fog.7 mph100%30.51 "Hg2 mi
11:50 AM34 °FLight snow. Fog.5 mph100%30.51 "Hg2 mi
11:20 AM34 °FLight snow. Overcast.6 mph93%30.51 "Hg2 mi
10:50 AM34 °FLight rain. Mostly cloudy.6 mph93%30.51 "Hg3 mi
10:20 AM34 °FLight snow. Fog.6 mph93%30.51 "Hg2 mi
9:50 AM36 °FDrizzle. Overcast.5 mph87%30.51 "HgN/A
9:20 AM36 °FPartly sunny.6 mph87%30.51 "HgN/A
8:50 AM34 °FPartly sunny.7 mph93%30.48 "HgN/A
8:20 AM34 °FPassing clouds.6 mph93%30.48 "HgN/A
7:50 AM34 °FPassing clouds.6 mph93%30.48 "HgN/A
7:20 AM34 °FLight snow. Passing clouds.6 mph93%30.48 "Hg5 mi
6:50 AM34 °FLight rain. Passing clouds.6 mph93%30.48 "HgN/A
6:20 AM36 °FPassing clouds.6 mph87%30.48 "HgN/A
5:50 AM36 °FPassing clouds.6 mph87%30.48 "HgN/A
5:20 AM36 °FLight rain. Overcast.5 mph87%30.48 "HgN/A
4:50 AM36 °FLight rain. Passing clouds.6 mph87%30.48 "HgN/A
4:20 AM36 °FLight rain. Passing clouds.6 mph87%30.48 "HgN/A
3:50 AM36 °FPassing clouds.6 mph87%30.48 "HgN/A
3:20 AM36 °FOvercast.7 mph87%30.48 "HgN/A
2:50 AM36 °FOvercast.7 mph87%30.48 "HgN/A
1:50 AM36 °FOvercast.8 mph87%30.48 "HgN/A
12:20 AM36 °FOvercast.7 mph87%30.48 "HgN/A
Weather by CustomWeather, © 2014

See weather overviewHow to use our weather pages